Wetbulb
73.59 73.12 71.87 69.25 61.95 59.93 55.85 57.91 60.56 58.57 59.00 62.06 64.00 61.92 61.45 62.24 60.04 55.18 66.16 68.50 71.38 72.37 73.92 75.42 77.13 76.49 77.04 76.87 77.13 76.96 77.11 76.72 76.88 76.91 77.01 76.93 76.67 76.43 75.94 76.45 76.34 75.36 76.27 75.54 75.59 75.21 74.54 74.85 75.20
72.68 72.21 70.44 66.76 58.45 53.27 54.38 60.14 58.51 59.35 61.76 64.67 65.14 64.16 62.76 59.95 63.71 64.79 65.57 70.02 72.71 73.65 74.21 74.63 77.00 77.14 77.07 76.82 76.47 77.09 76.95 76.84 77.01 76.85 76.67 76.62 76.51 76.66 76.42 76.39 75.86 75.92 75.86 75.79 75.48 75.37 75.23 75.45 75.62
72.24 72.31 66.26 62.41 56.71 53.38 53.77 60.39 61.58 62.07 63.92 64.55 63.57 65.32 63.37 61.38 64.58 65.32 68.06 72.09 73.54 73.50 74.35 74.40 77.14 77.26 77.13 77.03 76.87 76.99 76.96 76.68 76.56 76.73 76.82 76.69 76.42 76.75 76.39 76.58 76.25 75.83 75.91 75.86 75.70 75.45 75.23 75.01 74.87
70.00 67.61 65.46 59.42 55.16 58.19 58.85 61.65 63.02 62.29 65.06 65.71 64.11 60.04 63.54 66.17 65.15 67.58 71.01 73.55 73.30 73.66 74.59 76.07 77.00 76.80 77.01 77.25 77.04 76.85 76.76 76.68 76.83 76.59 76.64 76.65 76.71 76.70 76.61 76.33 76.13 75.91 75.94 75.89 75.92 75.62 74.82 74.93 74.76
67.93 67.03 58.37 56.16 56.37 58.95 61.72 63.95 63.98 62.39 63.70 62.83 63.23 59.14 61.47 65.97 69.10 70.27 72.42 73.35 72.84 73.44 74.13 74.53 77.40 77.14 76.98 76.88 76.64 76.45 76.42 76.58 76.80 76.58 76.30 76.16 76.32 76.14 76.20 76.50 76.14 76.17 76.00 75.63 75.64 75.59 75.07 74.63 74.77
65.14 61.35 51.31 52.08 55.25 59.68 61.98 65.59 64.63 64.01 62.53 61.71 60.83 60.18 61.58 68.16 68.69 70.96 72.61 72.68 73.67 73.43 73.72 74.38 76.30 77.01 76.87 77.34 77.33 76.56 76.50 76.74 76.74 76.64 76.76 76.85 76.38 76.38 76.27 76.25 76.20 76.15 76.12 75.76 75.47 75.34 75.45 74.96 74.54
60.68 55.41 53.28 55.27 56.46 57.35 61.22 66.50 63.78 63.23 61.76 61.08 63.09 58.81 62.47 66.80 69.22 71.79 72.26 73.42 73.98 73.55 73.25 73.18 73.63 75.29 77.05 77.04 77.55 76.53 76.89 76.85 76.85 76.64 76.44 76.65 76.68 76.52 76.30 76.36 76.26 76.26 75.72 75.82 75.40 75.26 75.48 75.45 75.10
63.70 58.35 54.40 55.31 55.34 56.57 62.33 64.68 65.76 64.44 62.43 64.79 64.41 58.36 60.47 65.79 69.81 71.79 72.48 72.99 73.28 73.09 73.01 72.64 73.07 73.21 73.78 74.88 77.07 76.46 76.49 76.65 76.65 76.40 76.44 76.45 76.45 76.55 76.39 76.72 76.98 75.97 76.14 75.95 75.81 75.29 75.62 75.67 75.37
67.48 57.39 53.56 55.82 56.14 58.20 63.49 62.41 66.68 67.61 62.64 65.11 64.48 62.99 65.31 68.10 71.05 70.63 70.57 71.69 72.13 72.41 71.72 72.23 72.35 73.14 73.13 74.73 74.77 75.96 76.58 76.60 76.47 76.01 76.19 75.23 73.92 74.40 74.24 75.32 75.82 76.01 76.15 75.81 75.69 76.09 75.73 75.63 75.46
62.46 56.72 56.72 60.83 60.99 58.18 63.56 63.63 64.37 63.99 62.88 62.23 62.27 65.43 66.82 68.89 69.18 67.39 67.60 67.99 70.31 70.83 71.56 71.47 72.03 72.55 73.27 75.85 73.62 73.78 74.83 74.56 74.44 74.16 72.16 72.00 72.72 73.30 74.73 75.03 75.42 75.82 75.53 75.87 76.01 75.90 75.81 73.94 72.91
62.16 57.90 62.07 61.89 62.16 62.44 63.02 63.57 65.97 62.99 60.61 61.39 61.17 63.20 65.24 68.06 67.35 66.76 67.27 67.81 68.71 70.20 71.98 71.22 71.63 72.05 73.02 73.89 72.88 73.00 73.46 73.98 73.72 72.36 70.42 71.40 72.48 71.26 72.51 73.61 73.81 74.27 75.31 73.50 74.07 73.68 73.95 73.68 72.40
57.80 61.71 63.30 63.55 64.16 61.50 61.12 63.18 63.72 64.16 63.91 65.15 64.37 65.00 65.21 66.75 66.41 66.67 67.00 67.71 68.52 69.78 71.30 71.37 71.65 71.31 72.15 72.24 72.27 72.33 72.69 72.93 72.82 71.65 69.46 70.80 71.73 70.60 71.78 72.37 72.72 72.86 73.75 72.95 73.12 72.43 72.81 73.53 73.28
57.41 59.21 61.98 63.85 63.11 62.09 62.82 62.53 63.77 64.12 65.33 64.95 65.19 65.06 64.73 66.78 66.84 68.01 68.57 68.98 69.65 69.54 71.20 71.23 71.24 70.70 71.36 71.05 71.74 71.64 71.77 72.43 72.49 71.27 68.49 71.40 71.06 71.03 69.97 70.24 70.38 70.12 72.17 72.81 72.20 72.56 73.35 72.32 72.67
55.67 57.92 58.89 60.06 58.62 60.51 60.43 61.44 63.88 63.99 64.78 63.44 64.13 63.76 64.39 66.46 67.07 67.79 68.39 68.24 69.29 70.05 70.66 71.13 71.04 70.76 70.74 70.11 70.52 70.56 71.33 71.82 72.13 71.88 67.73 71.20 71.55 71.28 70.54 69.69 71.40 71.09 72.24 73.35 72.95 72.92 71.84 71.42 70.23
52.65 48.78 51.73 54.02 56.93 59.34 62.93 60.06 61.50 64.01 63.99 62.13 63.20 63.76 64.22 66.13 67.58 67.36 68.67 68.31 69.08 69.91 70.53 70.25 70.53 70.43 70.11 69.97 69.83 70.07 71.03 71.38 71.68 72.36 70.38 69.61 72.30 71.88 71.66 70.80 71.71 72.46 73.46 73.15 72.25 72.39 72.00 71.10 71.33
47.00 46.95 45.51 51.03 54.97 59.48 59.82 52.68 62.41 63.33 62.21 60.90 62.59 63.31 63.96 65.73 66.67 67.78 69.25 69.22 69.65 69.75 69.76 70.03 71.08 70.23 69.83 69.67 69.44 69.60 70.68 70.87 71.15 72.12 72.49 69.90 72.23 72.82 72.06 71.63 72.56 73.51 74.00 73.44 72.48 71.59 70.49 70.31 70.20
40.69 39.99 43.68 48.80 55.13 58.96 57.36 53.61 62.34 62.58 61.89 60.60 61.58 62.34 63.72 64.87 66.41 67.43 69.12 69.75 70.00 69.81 69.55 69.21 69.63 69.08 69.64 69.96 69.57 69.34 70.08 70.43 70.68 71.61 72.57 72.40 72.70 73.65 72.41 72.37 71.81 73.12 72.81 73.48 73.32 71.49 70.27 68.63 69.54
38.06 37.99 42.59 47.26 52.99 57.08 55.76 55.57 61.76 61.46 60.96 60.95 60.90 61.65 62.74 64.25 65.40 67.38 68.50 69.85 70.15 70.05 69.05 69.08 68.78 68.37 69.34 69.72 69.73 70.36 70.62 70.19 69.65 71.15 72.45 72.89 73.15 73.78 72.61 72.89 72.86 72.95 72.63 72.64 73.08 71.81 71.10 71.00 69.61
43.73 43.21 44.43 48.17 54.13 55.97 55.18 55.63 60.76 61.86 60.76 59.78 60.43 60.98 61.80 63.33 66.17 67.84 68.49 69.48 69.65 69.49 68.25 68.12 67.61 67.63 69.38 69.03 68.26 68.79 69.07 70.09 70.38 70.41 72.35 72.45 73.14 73.85 72.66 72.87 72.29 72.05 72.36 72.11 71.98 71.91 69.19 67.27 67.31
42.99 40.80 41.39 46.75 52.29 55.06 54.05 54.93 60.68 61.67 61.43 61.25 60.59 60.77 61.99 63.38 65.15 66.68 67.72 68.65 68.70 68.55 67.85 67.74 67.54 67.58 69.58 70.07 69.99 69.55 69.16 69.68 70.91 70.59 71.67 72.32 72.86 73.97 73.47 73.22 72.80 72.83 71.33 71.74 72.20 71.64 69.69 67.72 66.17
40.05 41.66 41.16 43.66 49.38 56.72 53.77 51.99 57.45 61.80 62.82 63.16 63.46 63.16 63.01 63.49 64.49 66.02 66.71 67.66 68.65 68.03 68.34 67.23 67.69 67.84 69.51 69.83 69.56 69.29 69.08 69.30 69.37 69.53 69.84 71.59 72.50 73.34 73.89 73.63 72.77 72.55 73.04 71.54 72.32 71.15 69.93 66.74 66.35
34.54 44.25 45.69 44.60 43.60 43.39 53.25 41.74 51.87 58.30 60.32 61.71 62.74 63.21 63.63 64.14 65.30 66.26 66.82 66.97 67.74 68.07 69.25 68.90 67.98 68.03 69.25 70.00 69.53 69.27 68.31 67.39 67.86 68.74 69.50 71.18 72.57 73.09 73.96 74.09 73.38 73.02 73.05 72.01 72.06 71.66 70.70 67.28 65.89
40.93 45.62 44.44 44.68 42.33 42.17 46.45 45.95 48.31 56.72 57.33 59.90 62.11 63.37 64.49 65.35 65.68 65.68 66.44 67.41 68.05 68.57 68.34 69.26 68.63 68.25 68.95 69.60 69.92 69.38 68.86 67.78 67.97 68.41 69.22 69.65 72.29 72.97 73.77 74.27 73.83 73.48 73.20 72.13 72.43 72.47 71.65 69.46 65.81
47.35 44.79 42.88 41.41 39.93 35.98 42.58 46.11 41.90 51.09 55.79 58.77 62.38 63.56 64.86 65.58 66.18 66.52 67.24 68.12 68.13 69.06 68.45 68.89 68.18 67.95 68.59 69.41 69.49 69.21 68.90 67.35 67.58 67.53 67.77 68.03 69.69 72.16 73.05 73.96 73.78 73.76 73.14 72.77 72.52 73.00 72.27 70.43 68.89
45.95 41.10 32.70 31.50 32.39 35.82 42.46 42.88 45.14 50.41 57.47 59.22 60.24 62.58 64.13 66.10 66.68 66.66 66.33 66.87 67.54 67.92 68.16 68.68 68.37 67.55 68.29 68.92 69.11 69.04 68.89 68.11 67.96 68.01 67.59 67.14 67.84 69.69 71.71 73.17 73.47 73.43 73.50 73.22 73.29 72.61 72.76 71.85 70.51
43.56 40.27 33.36 27.88 29.15 36.02 39.50 37.74 43.78 52.37 56.86 59.91 61.48 62.63 63.59 64.69 66.39 66.82 67.30 67.52 67.49 68.05 68.40 68.31 68.15 67.91 68.47 68.66 69.00 69.47 69.44 68.79 69.19 68.81 68.65 68.23 67.95 69.18 71.45 72.44 73.54 73.94 74.02 73.30 73.32 72.64 72.63 72.53 72.24
42.50 40.82 43.95 35.19 32.34 32.78 40.44 41.19 47.42 50.11 52.75 56.35 58.91 60.17 61.65 63.27 65.08 65.92 67.33 68.14 68.19 68.07 68.27 67.92 68.17 68.35 68.61 69.05 69.34 69.57 69.64 69.42 69.15 69.12 69.09 69.20 69.06 69.52 70.72 71.87 72.82 73.72 73.92 73.59 73.21 72.72 72.68 72.72 72.07
41.81 45.54 39.44 35.75 30.98 28.29 34.70 37.07 44.11 46.43 48.76 52.76 56.24 59.08 60.95 62.72 64.04 65.15 66.63 66.81 68.56 68.94 68.93 68.65 68.57 68.22 68.90 69.46 69.78 69.85 69.93 69.89 69.90 69.29 69.00 69.13 68.71 70.21 70.90 71.43 72.05 72.95 73.82 73.68 73.20 72.77 73.34 72.93 72.51
40.90 40.87 40.84 42.54 38.51 34.45 29.74 36.34 43.84 47.50 51.23 52.16 54.61 59.72 61.07 62.33 63.41 64.52 65.15 66.49 67.92 69.31 69.41 68.88 68.43 68.33 68.83 69.43 69.83 70.03 70.10 70.30 70.34 69.30 69.26 69.04 69.02 68.91 69.99 71.76 72.20 72.62 73.49 73.93 73.04 73.24 73.47 72.90 73.22
40.98 38.38 41.01 40.50 36.37 36.95 35.35 40.04 47.79 48.45 50.32 52.97 54.64 58.46 61.32 62.66 63.73 64.71 65.11 65.03 66.51 68.28 69.02 68.98 68.42 68.43 69.17 69.73 69.91 70.08 70.62 70.51 70.20 69.96 69.86 69.71 69.16 69.41 69.94 71.23 72.24 72.74 73.65 74.05 73.47 73.01 73.47 73.06 73.04
MSLP
1010.75 1011.07 1011.44 1011.52 1011.75 1011.06 1009.71 1009.13 1008.93 1008.73 1008.94 1009.14 1009.88 1010.48 1011.47 1012.25 1013.07 1014.40 1014.39 1014.55 1014.63 1015.11 1015.27 1015.25 1015.42 1015.57 1015.91 1016.12 1016.23 1016.37 1016.47 1016.63 1016.81 1016.91 1017.06 1017.21 1017.45 1017.62 1017.73 1017.83 1017.99 1018.17 1018.22 1018.43 1018.43 1018.45 1018.53 1018.49 1018.48
1010.86 1011.28 1011.48 1011.11 1010.83 1010.26 1009.49 1008.73 1008.47 1008.28 1008.68 1009.33 1009.97 1010.63 1011.51 1012.71 1013.32 1013.98 1014.48 1014.52 1014.56 1015.02 1015.35 1015.48 1015.65 1015.87 1016.09 1016.36 1016.59 1016.57 1016.69 1016.87 1016.97 1017.12 1017.30 1017.51 1017.68 1017.75 1017.94 1018.08 1018.23 1018.30 1018.43 1018.49 1018.65 1018.71 1018.73 1018.75 1018.72
1011.09 1011.10 1011.28 1010.86 1010.32 1009.75 1009.10 1008.36 1008.12 1008.28 1008.53 1009.09 1010.41 1011.17 1012.03 1012.98 1013.42 1013.76 1014.07 1014.37 1014.65 1015.19 1015.50 1015.69 1015.86 1016.09 1016.25 1016.53 1016.72 1016.76 1016.87 1017.03 1017.17 1017.36 1017.54 1017.71 1017.92 1017.98 1018.17 1018.29 1018.41 1018.56 1018.63 1018.68 1018.75 1018.90 1018.97 1019.03 1019.03
1011.27 1011.57 1011.41 1010.75 1009.91 1009.03 1008.40 1007.94 1007.65 1008.49 1009.30 1009.67 1010.64 1012.03 1012.85 1013.03 1013.38 1013.71 1014.16 1014.23 1014.90 1015.43 1015.57 1015.76 1016.06 1016.25 1016.41 1016.70 1016.88 1017.00 1017.13 1017.26 1017.45 1017.63 1017.87 1017.98 1018.12 1018.35 1018.41 1018.58 1018.67 1018.77 1018.75 1018.86 1018.98 1019.03 1019.07 1019.17 1019.27
1011.30 1011.12 1011.11 1010.59 1009.55 1008.58 1008.00 1007.81 1007.99 1008.66 1009.56 1010.49 1010.97 1012.55 1013.33 1013.55 1013.53 1013.95 1014.45 1014.69 1014.99 1015.60 1015.75 1015.94 1016.18 1016.39 1016.60 1016.89 1017.13 1017.22 1017.37 1017.56 1017.74 1017.90 1018.14 1018.25 1018.43 1018.56 1018.65 1018.83 1018.87 1018.95 1019.01 1019.04 1019.14 1019.20 1019.22 1019.32 1019.41
1011.07 1011.14 1011.14 1010.38 1009.35 1008.36 1007.97 1008.05 1008.17 1008.86 1009.98 1010.97 1011.69 1012.58 1013.62 1013.75 1013.99 1014.25 1014.74 1015.00 1015.19 1015.68 1015.87 1016.16 1016.36 1016.58 1016.83 1017.05 1017.26 1017.41 1017.63 1017.79 1017.98 1018.14 1018.32 1018.40 1018.61 1018.79 1018.97 1019.02 1019.07 1019.20 1019.28 1019.26 1019.30 1019.33 1019.41 1019.49 1019.59
1010.76 1010.98 1010.67 1009.98 1009.00 1008.34 1008.12 1008.04 1008.15 1009.12 1009.97 1010.69 1011.19 1012.70 1013.90 1014.07 1014.27 1014.39 1014.86 1015.37 1015.41 1015.78 1016.17 1016.42 1016.54 1016.77 1016.97 1017.22 1017.43 1017.65 1017.86 1018.02 1018.20 1018.43 1018.53 1018.71 1018.85 1019.05 1019.15 1019.26 1019.32 1019.29 1019.34 1019.38 1019.48 1019.52 1019.63 1019.64 1019.75
1010.20 1010.67 1010.35 1009.61 1008.52 1008.15 1008.02 1008.10 1008.50 1008.87 1010.07 1010.53 1011.12 1012.01 1013.14 1013.53 1014.19 1014.52 1015.08 1015.57 1015.87 1016.19 1016.48 1016.64 1016.76 1016.99 1017.22 1017.43 1017.61 1017.86 1018.15 1018.31 1018.43 1018.63 1018.82 1018.99 1019.12 1019.30 1019.37 1019.49 1019.38 1019.37 1019.55 1019.58 1019.70 1019.66 1019.67 1019.85 1019.88
1009.86 1010.35 1009.91 1008.79 1007.99 1007.54 1007.62 1007.97 1008.40 1009.08 1009.69 1010.24 1010.88 1011.25 1012.20 1013.42 1014.22 1014.81 1015.29 1015.79 1016.07 1016.55 1016.80 1016.80 1017.00 1017.21 1017.43 1017.66 1017.81 1018.05 1018.34 1018.50 1018.64 1018.84 1019.05 1019.34 1019.58 1019.66 1019.78 1019.67 1019.46 1019.49 1019.59 1019.82 1019.93 1019.85 1020.02 1020.07 1020.06
1009.97 1009.91 1008.80 1007.77 1007.13 1007.25 1007.38 1007.49 1008.15 1008.96 1009.64 1010.43 1010.95 1011.60 1012.57 1013.44 1014.18 1014.63 1015.04 1015.52 1016.04 1016.49 1016.91 1016.99 1017.16 1017.33 1017.56 1017.71 1018.10 1018.37 1018.54 1018.72 1018.95 1019.23 1019.48 1019.63 1019.72 1019.84 1019.90 1019.89 1019.69 1019.65 1019.63 1019.77 1019.89 1019.94 1020.05 1020.29 1020.38
1009.66 1009.16 1008.13 1007.19 1006.91 1007.06 1007.26 1007.41 1007.59 1008.35 1009.35 1009.77 1010.38 1011.49 1012.49 1013.07 1014.00 1014.54 1014.95 1015.33 1015.76 1016.22 1016.83 1016.99 1017.16 1017.46 1017.63 1017.84 1018.34 1018.56 1018.75 1018.92 1019.19 1019.48 1019.69 1019.77 1019.83 1019.91 1020.05 1020.07 1020.17 1020.04 1019.88 1020.14 1020.06 1020.16 1020.33 1020.36 1020.47
1009.23 1008.34 1007.81 1006.97 1006.55 1006.85 1006.88 1007.07 1007.50 1007.86 1007.93 1008.48 1009.94 1010.40 1011.65 1012.62 1013.38 1013.98 1014.57 1015.14 1015.71 1016.19 1016.54 1016.89 1017.10 1017.57 1017.73 1018.03 1018.37 1018.58 1018.85 1019.02 1019.31 1019.51 1019.74 1019.89 1019.97 1020.03 1020.13 1020.24 1020.37 1020.40 1020.43 1020.21 1020.37 1020.54 1020.59 1020.49 1020.51
1008.73 1008.17 1007.51 1006.98 1006.55 1006.19 1006.37 1006.56 1007.05 1007.66 1008.10 1008.92 1010.32 1011.50 1012.21 1012.70 1013.38 1014.02 1014.48 1015.22 1015.67 1016.13 1016.46 1016.73 1016.96 1017.52 1017.70 1018.14 1018.35 1018.67 1018.87 1019.04 1019.26 1019.55 1019.75 1019.87 1020.03 1020.17 1020.36 1020.43 1020.51 1020.69 1020.59 1020.45 1020.44 1020.58 1020.49 1020.39 1020.51
1007.61 1007.91 1007.61 1007.09 1006.68 1006.25 1006.16 1006.45 1007.03 1007.84 1008.40 1009.47 1010.20 1011.17 1012.12 1012.62 1013.10 1013.89 1014.35 1014.79 1015.31 1015.84 1016.27 1016.56 1016.97 1017.29 1017.61 1018.12 1018.33 1018.63 1018.83 1019.01 1019.21 1019.46 1019.70 1019.85 1020.07 1020.15 1020.27 1020.28 1020.38 1020.60 1020.69 1020.41 1020.49 1020.53 1020.43 1020.55 1020.55
1007.79 1007.89 1007.46 1006.80 1006.39 1006.21 1006.11 1006.72 1007.04 1007.87 1008.64 1009.67 1010.65 1011.32 1011.94 1012.41 1012.84 1012.99 1013.61 1014.17 1014.64 1015.23 1015.96 1016.35 1016.79 1017.09 1017.42 1017.91 1018.26 1018.50 1018.74 1018.92 1019.14 1019.31 1019.62 1019.81 1019.94 1020.09 1020.26 1020.40 1020.33 1020.36 1020.41 1020.44 1020.63 1020.73 1020.65 1020.67 1020.63
1008.01 1008.01 1007.73 1006.38 1005.98 1005.75 1006.15 1006.57 1007.49 1008.12 1008.81 1009.84 1010.55 1011.20 1011.74 1012.21 1012.55 1012.92 1013.36 1013.89 1014.50 1014.87 1015.59 1016.12 1016.57 1017.01 1017.33 1017.62 1018.03 1018.26 1018.55 1018.76 1019.01 1019.22 1019.42 1019.61 1019.77 1019.90 1020.28 1020.49 1020.35 1020.15 1020.28 1020.38 1020.64 1021.08 1021.17 1021.07 1021.10
1008.64 1008.18 1007.34 1006.69 1005.70 1005.65 1006.32 1006.80 1007.56 1008.33 1009.01 1009.82 1010.37 1010.90 1011.33 1011.89 1012.33 1012.57 1013.11 1013.59 1014.14 1014.49 1015.16 1015.82 1016.26 1016.69 1017.06 1017.29 1017.72 1018.01 1018.30 1018.62 1018.82 1019.07 1019.24 1019.37 1019.61 1019.77 1020.09 1020.40 1020.46 1020.28 1020.46 1020.44 1020.57 1021.20 1021.23 1021.37 1021.47
1008.73 1008.09 1006.95 1006.18 1005.63 1005.77 1006.29 1006.68 1007.67 1008.32 1008.90 1009.59 1010.10 1010.53 1010.79 1011.12 1011.53 1012.11 1012.73 1013.28 1013.88 1014.41 1014.95 1015.47 1015.94 1016.34 1016.86 1017.25 1017.61 1017.95 1018.21 1018.42 1018.73 1018.89 1018.98 1019.21 1019.40 1019.61 1019.95 1020.15 1020.19 1020.29 1020.45 1020.50 1020.72 1021.18 1021.49 1021.61 1021.73
1008.01 1007.62 1006.91 1005.97 1005.30 1005.51 1006.03 1006.40 1007.43 1008.06 1008.98 1009.45 1009.75 1010.16 1010.32 1010.54 1011.13 1011.77 1012.24 1012.88 1013.53 1014.05 1014.69 1015.14 1015.69 1015.99 1016.62 1017.29 1017.81 1018.13 1018.26 1018.35 1018.53 1018.59 1018.68 1018.97 1019.25 1019.55 1019.94 1020.20 1020.35 1020.35 1020.42 1020.48 1020.73 1021.21 1021.55 1021.92 1021.97
1008.27 1007.72 1006.91 1005.98 1005.29 1005.54 1005.81 1006.09 1006.96 1007.50 1007.50 1007.94 1008.73 1009.17 1009.60 1010.32 1010.73 1011.17 1011.69 1012.16 1012.71 1013.32 1013.99 1014.66 1015.11 1015.58 1016.05 1016.61 1017.13 1017.52 1017.89 1018.18 1018.20 1018.34 1018.51 1018.73 1019.10 1019.41 1019.74 1019.98 1020.25 1020.28 1020.51 1020.69 1020.95 1021.16 1021.70 1022.04 1022.19
1007.86 1007.61 1007.17 1006.34 1005.66 1005.56 1005.91 1006.43 1006.99 1007.23 1007.65 1008.21 1008.41 1008.59 1009.11 1009.38 1009.65 1010.34 1010.93 1011.39 1012.06 1012.65 1013.15 1013.87 1014.45 1014.95 1015.53 1016.09 1016.82 1017.49 1017.92 1018.25 1018.48 1018.64 1018.78 1018.71 1018.87 1019.21 1019.52 1019.77 1020.11 1020.26 1020.27 1020.76 1020.96 1021.05 1021.39 1021.94 1022.19
1007.43 1006.75 1007.29 1007.21 1006.91 1006.29 1005.93 1006.38 1006.42 1006.38 1006.89 1007.19 1007.41 1007.68 1008.09 1008.39 1008.98 1009.59 1010.15 1010.59 1010.99 1011.61 1012.51 1013.10 1013.81 1014.43 1015.02 1015.63 1016.34 1016.91 1017.45 1017.99 1018.26 1018.40 1018.54 1018.56 1018.68 1018.96 1019.27 1019.57 1019.89 1020.09 1020.31 1020.65 1020.83 1020.84 1021.23 1021.68 1022.17
1006.12 1006.61 1007.20 1007.61 1007.58 1007.19 1006.27 1006.45 1005.27 1005.63 1006.16 1005.96 1006.02 1006.35 1006.94 1007.32 1007.81 1008.25 1008.78 1009.43 1010.23 1011.19 1011.83 1012.42 1013.15 1013.95 1014.44 1015.07 1015.64 1016.32 1017.03 1017.45 1017.76 1018.11 1018.37 1018.43 1018.43 1018.67 1018.97 1019.39 1019.71 1019.93 1020.20 1020.58 1020.64 1020.89 1021.23 1021.54 1021.94
1006.01 1006.71 1007.22 1007.76 1008.25 1007.31 1006.27 1006.21 1004.63 1004.51 1004.15 1004.13 1004.68 1005.00 1005.54 1006.23 1006.63 1007.22 1007.88 1008.83 1009.48 1010.25 1011.24 1011.87 1012.56 1013.29 1013.87 1014.42 1015.06 1015.66 1016.32 1017.11 1017.65 1018.01 1018.28 1018.38 1018.37 1018.54 1018.83 1019.25 1019.52 1019.74 1020.06 1020.38 1020.55 1020.69 1021.11 1021.41 1021.61
1005.95 1006.92 1008.11 1008.69 1008.27 1006.11 1005.86 1005.64 1003.60 1002.38 1002.04 1002.13 1002.66 1003.21 1003.89 1004.70 1005.53 1006.11 1006.93 1007.67 1008.47 1009.19 1010.09 1011.10 1011.89 1012.49 1013.28 1013.87 1014.44 1015.05 1015.58 1016.35 1016.85 1017.31 1017.69 1018.04 1018.26 1018.43 1018.70 1019.05 1019.41 1019.50 1019.66 1019.96 1020.18 1020.59 1020.89 1021.09 1021.32
1005.67 1006.02 1006.64 1007.09 1007.04 1006.33 1005.57 1003.58 1001.65 1001.08 1001.07 1000.95 1001.22 1001.73 1003.03 1003.84 1004.32 1004.87 1005.46 1006.32 1007.29 1008.20 1008.99 1010.00 1010.92 1011.64 1012.43 1013.16 1013.74 1014.35 1015.03 1015.69 1016.13 1016.61 1017.04 1017.30 1017.57 1017.72 1018.06 1018.57 1018.86 1019.02 1019.31 1019.69 1019.94 1020.23 1020.55 1020.75 1020.96
1005.42 1005.04 1005.47 1006.17 1006.69 1005.91 1004.42 1003.18 1001.43 1000.56 1000.08 1000.05 1000.28 1001.37 1001.76 1002.26 1002.78 1002.95 1003.95 1005.03 1005.92 1006.92 1007.85 1008.90 1009.90 1010.84 1011.27 1012.08 1012.91 1013.60 1014.27 1014.83 1015.42 1015.83 1016.29 1016.76 1016.98 1017.22 1017.63 1018.01 1018.45 1018.65 1018.95 1019.30 1019.69 1019.95 1020.12 1020.44 1020.66
1005.48 1004.97 1005.53 1005.73 1006.07 1005.60 1003.71 1002.22 1000.47 1000.28 999.89 999.58 1000.00 1000.23 1000.49 1000.83 1001.40 1002.39 1002.78 1003.45 1004.33 1005.34 1006.59 1007.86 1008.91 1009.56 1010.35 1011.10 1012.07 1012.63 1013.36 1013.96 1014.55 1015.26 1015.71 1016.21 1016.59 1016.92 1017.22 1017.73 1018.08 1018.40 1018.54 1018.86 1019.38 1019.69 1019.79 1020.13 1020.29
1006.06 1005.58 1005.13 1004.84 1004.99 1004.32 1003.68 1001.28 999.82 999.33 999.09 999.01 999.01 999.02 999.29 999.64 1000.10 1000.62 1001.16 1001.95 1002.99 1004.35 1005.45 1006.55 1007.70 1008.79 1009.69 1010.19 1011.00 1011.87 1012.49 1013.20 1013.90 1014.47 1014.96 1015.51 1016.12 1016.52 1016.95 1017.29 1017.68 1017.98 1018.26 1018.54 1018.96 1019.27 1019.48 1019.77 1019.89
1008.12 1006.70 1005.59 1004.89 1004.67 1004.02 1003.08 1000.72 999.08 998.37 998.19 998.02 997.64 998.08 998.21 998.48 998.74 999.41 1000.11 1001.15 1002.10 1002.90 1004.06 1005.16 1006.52 1007.54 1008.36 1009.16 1010.11 1011.04 1011.75 1012.40 1013.09 1013.69 1014.21 1014.83 1015.49 1016.02 1016.29 1016.76 1017.19 1017.48 1017.79 1018.03 1018.43 1018.78 1019.02 1019.25 1019.41
Wind_Speed
8 5 2 2 3 1 4 0 2 4 4 2 12 5 7 5 2 2 2 5 12 10 7 11 16 16 15 15 14 14 14 13 12 13 12 12 11 11 11 12 12 12 11 12 12 12 11 11 10
6 8 1 2 1 1 3 3 4 3 6 12 9 9 3 3 4 8 7 7 12 10 5 8 15 15 15 14 14 13 14 13 12 12 11 11 10 11 10 11 13 11 10 11 11 11 11 10 11
6 4 2 2 1 2 2 1 3 8 20 9 6 7 3 4 6 14 5 13 12 9 6 10 15 15 15 14 13 14 13 12 12 11 10 11 10 10 10 11 11 10 10 10 11 11 11 10 9
4 1 3 2 2 3 3 4 9 15 8 7 10 8 4 3 12 6 14 14 13 9 9 14 15 16 15 14 13 14 12 11 11 11 10 10 9 10 10 10 9 10 9 10 10 10 10 10 9
2 2 1 3 3 3 1 1 5 10 6 7 3 4 5 5 9 16 13 12 14 9 7 11 14 14 14 14 13 13 11 11 9 9 11 9 10 9 9 8 8 9 8 9 10 9 9 8 7
2 2 1 2 2 1 2 4 5 6 6 8 8 8 5 12 14 12 12 11 11 9 8 8 14 14 14 13 12 13 11 10 9 9 9 11 8 8 7 6 7 8 8 8 9 8 8 7 6
3 3 2 2 4 2 1 3 7 6 8 4 14 5 4 13 10 11 12 9 8 9 7 5 6 11 13 12 13 12 10 10 9 9 8 9 7 7 6 6 6 7 8 8 8 9 10 8 7
3 2 1 4 1 1 0 2 4 8 2 13 11 8 9 14 12 12 11 8 9 7 5 6 5 6 5 5 12 11 10 9 8 7 7 6 6 5 6 4 4 7 8 7 9 9 10 9 6
4 0 3 4 2 2 5 5 3 6 14 6 7 7 16 18 15 15 15 10 9 7 5 5 5 5 5 4 6 9 10 9 8 7 7 5 3 3 3 2 3 4 6 6 8 8 10 8 7
4 2 6 4 3 2 4 6 9 7 12 3 10 19 22 18 19 20 19 17 12 13 8 5 5 5 5 4 3 4 4 3 3 3 4 3 2 0 1 1 3 3 5 5 6 7 10 6 3
5 5 4 2 3 6 7 4 4 13 5 8 25 25 23 22 21 20 19 18 17 15 9 6 6 5 5 4 3 2 1 2 2 4 3 1 1 2 2 0 2 2 3 2 2 3 2 4 3
4 8 9 5 5 1 5 7 4 10 4 15 24 29 25 25 24 22 20 19 18 16 14 7 6 5 5 3 3 3 2 2 2 2 2 1 1 0 1 1 2 2 1 1 1 2 1 2 4
9 3 3 6 8 9 6 7 5 11 9 19 23 23 20 21 23 19 15 14 16 16 12 10 7 6 5 4 3 3 3 2 3 2 2 2 2 2 0 0 1 0 2 1 2 2 1 1 2
6 8 10 8 8 7 5 3 6 5 17 19 25 24 19 19 21 15 15 16 15 13 12 10 9 6 5 5 5 3 3 3 3 3 3 3 2 2 2 2 1 1 0 1 2 2 3 1 1
4 4 4 6 5 7 3 2 5 13 17 21 21 21 19 18 19 19 17 16 16 14 12 12 10 7 7 7 5 4 3 4 3 3 4 4 3 3 2 1 2 0 1 3 2 3 2 2 1
5 4 1 5 9 6 10 9 4 13 18 20 21 20 19 18 19 16 16 15 15 13 13 12 10 10 7 6 5 4 4 3 3 3 3 5 4 3 2 1 3 1 2 1 2 3 2 2 3
5 4 7 3 7 3 9 5 9 14 15 18 19 20 19 16 17 16 15 15 15 14 13 12 11 10 9 6 5 5 5 4 4 3 4 5 5 5 4 3 2 2 2 1 2 2 1 1 1
6 4 4 6 7 8 7 7 13 15 16 17 18 19 19 19 19 16 15 15 14 12 11 11 10 8 8 4 3 2 2 3 3 5 5 5 4 4 3 2 2 3 2 2 2 2 3 1 1
5 5 6 4 5 6 11 10 15 16 13 15 17 18 19 19 17 15 15 15 14 13 12 12 12 8 8 4 3 2 3 2 2 3 5 6 5 5 5 3 2 2 2 2 2 2 3 2 1
6 3 4 4 3 6 6 15 10 19 22 20 18 19 19 17 18 18 16 17 17 16 14 13 13 9 9 7 3 3 3 2 1 2 4 5 6 5 4 4 4 3 3 3 2 2 2 1 0
8 16 6 3 2 7 4 5 6 12 8 13 15 17 16 20 21 19 19 18 17 17 17 15 14 12 11 10 5 3 4 3 2 1 2 4 5 5 5 5 4 4 2 3 2 2 3 3 1
9 15 12 6 2 4 8 6 6 8 17 18 18 19 17 20 19 17 19 18 19 18 16 16 14 13 11 10 9 8 6 6 4 4 3 4 6 7 6 5 4 4 2 3 3 2 2 3 2
11 9 14 12 6 4 4 3 7 11 12 20 21 21 20 19 21 22 22 20 18 15 16 15 14 13 12 12 11 9 8 3 3 3 5 4 4 6 6 5 5 4 3 3 4 3 3 2 3
6 1 4 4 5 10 12 7 7 8 17 18 20 20 21 22 22 21 20 18 18 16 15 15 15 14 14 13 14 13 13 7 5 4 4 4 3 3 4 4 4 3 3 4 4 3 4 3 2
13 11 2 3 6 13 11 13 14 6 13 18 21 23 22 21 20 21 21 20 19 20 17 15 16 16 14 15 14 13 13 11 11 9 7 6 4 3 5 5 5 4 5 4 4 4 4 4 3
15 11 8 9 5 12 5 10 9 20 10 12 18 18 16 18 18 21 23 21 20 20 20 18 18 18 16 16 16 14 12 8 9 9 6 6 6 5 5 7 6 7 5 5 4 3 4 4 4
7 19 10 5 1 1 10 5 8 6 19 17 13 11 18 22 22 25 22 22 21 20 22 20 19 18 18 18 15 14 12 12 11 9 8 7 5 5 6 7 8 8 7 7 6 5 6 5 5
9 3 8 3 8 5 4 7 11 11 10 13 7 13 17 21 23 18 21 23 22 22 21 20 21 21 18 18 15 14 14 14 11 8 10 8 6 6 6 7 8 7 8 8 8 6 5 6 5
5 9 6 7 8 9 2 7 7 12 16 15 13 16 16 19 22 22 21 21 22 20 21 21 21 20 18 17 16 15 14 13 12 11 10 10 7 8 7 8 8 8 9 8 8 8 7 8 7
5 5 7 8 12 6 4 8 4 10 9 12 15 16 17 20 22 21 20 19 20 23 22 23 21 20 19 18 17 16 14 14 14 12 12 10 10 9 10 8 8 8 8 9 9 10 9 10 10
Wind_Direction
158 147 132 212 228 233 268 138 97 98 96 129 138 146 150 48 156 173 140 144 125 140 159 135 131 131 127 123 125 118 115 118 118 119 121 121 120 122 125 125 123 118 116 107 101 107 117 114 113
141 152 245 274 276 275 333 6 30 136 118 110 83 104 80 91 97 119 122 166 137 139 143 132 135 132 128 129 125 125 121 117 118 116 117 122 126 131 129 122 117 118 113 105 101 101 102 102 107
149 204 279 258 170 205 242 76 321 115 142 130 103 43 58 101 112 138 154 143 135 135 131 143 140 135 132 129 134 124 119 120 120 116 120 120 126 127 122 119 123 122 116 109 101 99 101 104 103
157 195 257 266 228 225 211 336 118 122 90 51 105 75 82 271 148 147 142 137 133 136 138 142 143 139 135 134 125 123 123 123 120 123 121 117 126 125 123 124 124 112 106 103 101 99 98 104 107
284 211 284 282 258 257 186 112 125 130 85 58 24 106 78 96 118 133 139 136 141 139 145 143 145 143 142 136 137 127 131 126 113 125 122 116 114 112 112 121 119 111 104 98 98 103 108 111 103
192 94 121 238 256 281 5 33 127 94 111 134 98 113 120 129 136 139 131 136 138 139 135 150 150 147 152 147 142 131 136 130 112 114 125 117 111 116 117 121 119 114 110 103 102 113 117 120 111
173 128 233 266 242 157 210 359 140 115 133 139 143 99 112 147 144 133 134 125 129 132 130 139 153 153 157 149 146 139 139 131 117 105 98 102 123 119 125 126 124 121 110 100 98 111 115 117 106
155 124 275 245 272 197 216 88 149 100 94 127 142 161 169 158 144 130 132 120 119 130 133 146 152 134 138 158 145 146 146 136 126 118 109 112 108 125 128 102 136 114 104 105 102 109 117 114 109
137 295 237 251 201 159 150 148 65 126 142 178 184 141 138 145 136 141 147 142 132 134 140 150 143 143 146 143 159 152 152 144 139 136 128 81 67 41 55 156 125 113 104 110 106 106 116 126 120
203 188 226 221 165 167 157 172 132 147 156 83 100 117 138 145 151 159 163 163 159 162 167 161 151 153 152 151 113 129 157 125 114 95 85 83 94 216 244 250 177 139 105 103 99 109 110 101 91
186 214 222 303 116 153 149 140 140 144 209 178 150 148 154 155 163 167 167 169 172 172 175 168 161 155 161 140 130 139 135 131 114 107 103 111 78 51 64 355 8 20 50 66 63 68 99 127 131
209 228 261 310 352 262 176 149 151 173 215 154 163 157 156 164 168 170 170 171 174 177 178 169 168 160 173 131 150 168 162 150 142 156 144 157 138 94 123 74 31 13 39 67 34 68 64 137 164
235 209 258 247 292 286 161 172 182 204 113 140 150 155 162 164 170 173 167 167 175 180 180 181 165 172 179 152 169 174 191 168 167 160 178 170 193 175 134 115 118 238 334 58 83 92 102 267 212
221 238 280 286 272 281 225 148 157 116 135 147 156 161 167 172 172 166 172 171 176 178 184 179 180 179 170 171 179 183 191 184 181 181 190 188 200 211 208 208 210 157 102 111 110 100 87 61 62
261 314 320 230 224 232 185 282 220 141 144 153 164 165 170 176 177 181 178 177 175 182 176 183 183 176 182 182 180 180 192 192 190 208 198 210 210 206 225 143 264 178 136 59 92 65 18 55 53
178 111 186 276 180 242 150 239 118 148 148 165 167 173 176 184 188 183 183 177 180 178 178 181 186 187 183 183 180 179 187 201 199 200 202 213 219 209 191 207 247 152 59 86 96 85 61 349 37
358 194 196 287 199 158 181 222 157 163 164 172 176 177 182 184 190 190 186 184 182 184 176 180 182 185 185 184 181 185 192 199 205 201 201 207 210 208 186 197 205 127 85 141 106 86 126 53 25
202 220 222 173 207 182 196 220 161 173 171 180 179 185 186 191 192 189 186 186 183 190 182 179 183 176 173 158 151 178 201 227 183 209 204 188 205 203 194 216 185 124 135 114 112 109 60 98 78
167 195 215 211 205 140 201 222 178 176 180 184 185 189 195 197 189 188 185 188 182 188 186 182 184 180 164 152 145 172 203 180 187 195 185 182 185 196 190 187 171 171 132 162 103 97 87 59 42
232 241 253 289 226 174 213 232 178 179 197 193 184 191 198 190 194 192 190 188 188 188 190 187 188 177 183 181 161 158 156 198 172 161 177 176 181 185 194 198 188 176 118 145 111 109 109 90 54
218 229 227 209 352 211 133 293 178 198 189 196 203 210 195 197 191 194 193 192 191 192 190 191 191 184 186 179 127 92 80 47 66 82 147 200 189 191 197 200 196 162 155 132 184 140 141 132 332
213 215 239 254 324 219 164 260 234 184 196 202 203 205 199 197 199 195 196 197 196 198 193 190 190 189 185 174 171 180 185 185 188 176 182 182 188 196 196 199 191 176 161 157 180 167 143 124 155
237 161 205 229 211 302 227 194 257 184 201 209 207 207 205 201 199 196 200 199 199 191 198 195 188 192 186 184 185 184 201 171 144 156 176 194 194 196 199 191 185 190 176 170 196 166 173 156 150
175 338 133 113 135 237 226 211 257 191 209 213 213 210 203 201 202 200 200 196 200 200 195 194 187 193 189 185 194 192 196 169 158 167 182 201 207 188 199 183 195 195 188 191 186 202 198 191 169
177 153 273 234 201 233 206 224 233 196 220 210 203 208 205 200 202 199 194 196 198 197 194 193 193 192 189 186 192 196 197 179 189 185 192 184 191 187 198 180 187 197 199 207 179 185 212 206 190
203 179 169 195 192 226 181 225 241 224 239 217 215 209 196 198 204 201 200 197 197 200 196 192 193 198 186 189 193 194 192 190 198 191 192 197 194 195 171 193 193 206 199 194 202 196 204 208 230
212 210 191 98 241 169 199 244 295 243 221 228 222 177 195 198 201 203 196 200 197 196 198 192 194 202 189 192 193 194 193 192 198 190 189 196 185 189 182 185 201 207 201 197 194 212 210 203 219
194 260 195 198 194 242 264 194 228 198 224 234 206 193 205 200 207 202 199 196 197 197 195 192 198 195 193 191 196 195 193 196 194 182 193 191 186 188 176 187 203 203 208 201 191 210 223 211 226
187 225 269 174 195 209 168 247 217 192 199 221 208 211 202 201 199 202 198 194 194 191 192 194 196 195 196 192 192 196 195 194 190 192 197 193 182 186 195 191 200 205 205 202 194 209 213 217 230
319 278 235 224 221 235 144 248 207 210 213 224 214 205 206 204 202 202 197 191 188 191 190 193 194 193 192 192 189 195 195 191 192 198 198 190 189 189 199 196 202 207 208 203 200 207 209 216 225